Louisville, KY

12:53 PM EDT on June 22, 2017 (GMT -0400)
Louisville International-Standiford

Weather History for KSDF - November, 2013

Change the Weather History Date:

Tuesday, November 19, 2013

  Actual Average Record
Temperature  
Mean Temperature 41 °F 47 °F  
Max Temperature 47 °F 56 °F 78 °F (1930)
Min Temperature 34 °F 38 °F 10 °F (1880)
Degree Days  
Heating Degree Days 24 18  
Month to date heating degree days 301 269  
Since 1 July heating degree days 534 511  
Cooling Degree Days 0 0  
Month to date cooling degree days 0 0  
Year to date cooling degree days 1628 1609  
Moisture  
Dew Point 27 °F    
Average Humidity 58    
Maximum Humidity 70    
Minimum Humidity 45    
Precipitation  
Precipitation 0.00 in 0.13 in 1.62 in (1988)
Month to date precipitation 3.56 2.17  
Year to date precipitation 48.01 39.66  
Snow  
Snow 0.00 in 0.00 in 0.90 in (1961)
Month to date snowfall 0.3 0.0  
Since 1 July snowfall 0.3 0.1  
Since 1 September snowfall 0.3 0.1  
Snow Depth 0.00 in    
Sea Level Pressure  
Sea Level Pressure 30.30 in    
Wind  
Wind Speed 7 mph (NNE)    
Max Wind Speed 14 mph    
Max Gust Speed 17 mph    
Visibility 10 miles    
Events      
T = Trace of Precipitation, MM = Missing Value Source: NWS Daily Summary

Daily Weather History Graph

Daily Weather History Graph

Search for Another Location

Airport or City:

Trip Planner

Search our weather history database for the weather conditions in past years. The results will help you decide how hot, cold, wet, or windy it might be!

Date:

Astronomy

Nov. 19, 2013 Rise Set
Actual Time 7:28 AM EST 5:27 PM EST
Civil Twilight 7:00 AM EST 5:56 PM EST
Nautical Twilight 6:28 AM EST 6:28 PM EST
Astronomical Twilight 5:56 AM EST 6:59 PM EST
Moon 7:18 PM EST (11/19) 9:07 AM EST (11/19)
Length of Visible Light 10h 56m
Length of Day
9h 59m
Waning Gibbous, 96% of the Moon is Illuminated
Nov 19
Waning Gibbous
Nov 25
Last Quarter
Dec 2
New
Dec 9
First Quarter
Dec 17
Full

Hourly Weather History & Observations

Time (EST) Temp. Windchill Dew Point Humidity Pressure Visibility Wind Dir Wind Speed Gust Speed Precip Events Conditions
12:56 AM 39.9 °F 35.8 °F 28.0 °F 63% 30.24 in 10.0 mi NW 5.8 mph - N/A   Clear
1:56 AM 37.9 °F 34.4 °F 28.0 °F 68% 30.25 in 10.0 mi NW 4.6 mph - N/A   Clear
2:56 AM 37.0 °F 31.6 °F 27.0 °F 67% 30.27 in 10.0 mi NNW 6.9 mph - N/A   Clear
3:56 AM 37.0 °F 31.6 °F 27.0 °F 67% 30.27 in 10.0 mi NW 6.9 mph - N/A   Clear
4:56 AM 36.0 °F 30.3 °F 27.0 °F 70% 30.27 in 10.0 mi NNW 6.9 mph - N/A   Partly Cloudy
5:56 AM 35.1 °F - 26.1 °F 70% 30.28 in 10.0 mi Calm Calm - N/A   Scattered Clouds
6:56 AM 35.1 °F 32.2 °F 26.1 °F 70% 30.30 in 10.0 mi North 3.5 mph - N/A   Mostly Cloudy
7:56 AM 35.1 °F 27.4 °F 27.0 °F 72% 30.32 in 10.0 mi North 10.4 mph - N/A   Mostly Cloudy
8:56 AM 37.0 °F 31.0 °F 28.0 °F 70% 30.34 in 10.0 mi NNE 8.1 mph - N/A   Mostly Cloudy
9:56 AM 39.9 °F 32.5 °F 28.0 °F 63% 30.35 in 10.0 mi NE 12.7 mph - N/A   Mostly Cloudy
10:56 AM 41.0 °F 34.7 °F 28.0 °F 60% 30.35 in 10.0 mi NNE 10.4 mph - N/A   Overcast
11:56 AM 44.1 °F 39.0 °F 27.0 °F 51% 30.33 in 10.0 mi NE 9.2 mph - N/A   Overcast
12:56 PM 46.0 °F 41.9 °F 27.0 °F 47% 30.31 in 10.0 mi NNE 8.1 mph - N/A   Overcast
1:56 PM 44.1 °F 39.0 °F 27.0 °F 51% 30.30 in 10.0 mi North 9.2 mph - N/A   Overcast
2:56 PM 46.0 °F 42.5 °F 27.0 °F 47% 30.28 in 10.0 mi NNE 6.9 mph - N/A   Overcast
3:56 PM 45.0 °F 40.6 °F 26.1 °F 48% 30.28 in 10.0 mi NE 8.1 mph - N/A   Overcast
4:56 PM 44.1 °F 40.8 °F 28.0 °F 53% 30.30 in 10.0 mi East 5.8 mph - N/A   Mostly Cloudy
5:56 PM 42.1 °F 38.4 °F 27.0 °F 55% 30.31 in 10.0 mi ENE 5.8 mph - N/A   Mostly Cloudy
6:56 PM 41.0 °F 39.0 °F 28.0 °F 60% 30.32 in 10.0 mi ENE 3.5 mph - N/A   Mostly Cloudy
7:56 PM 39.0 °F 35.7 °F 28.0 °F 65% 30.32 in 10.0 mi ENE 4.6 mph - N/A   Scattered Clouds
8:56 PM 37.9 °F 33.5 °F 28.0 °F 68% 30.32 in 10.0 mi ENE 5.8 mph - N/A   Partly Cloudy
9:56 PM 37.0 °F 31.6 °F 28.0 °F 70% 30.32 in 10.0 mi ENE 6.9 mph - N/A   Partly Cloudy
10:56 PM 36.0 °F 31.1 °F 27.0 °F 70% 30.31 in 10.0 mi ENE 5.8 mph - N/A   Clear
11:56 PM 36.0 °F 29.0 °F 27.0 °F 70% 30.28 in 10.0 mi East 9.2 mph - N/A   Scattered Clouds